Regional Weather Roundup
Issued by NWS

Home | Current Version | Previous Version | Graphics & Text | Print | Product List | Glossary Off
Versions: 1 2 3 4 5 6 7 8 9 10 11 12 13 14 15 16 17 18 19 20 21 22 23 24 25 26 27 28 29 30 31 32 33 34 35 36 37 38 39 40 41 42 43 44 45 46 47 48 49 50

000
ASUS43 KMKX 141259
RWRWI

WISCONSIN REGIONAL WEATHER ROUNDUP
NATIONAL WEATHER SERVICE MILWAUKEE/SULLIVAN WI
700 AM CST THU DEC 14 2017

NOTE: "FAIR" INDICATES FEW OR NO CLOUDS BELOW 12,000 FEET WITH NO
SIGNIFICANT WEATHER AND/OR OBSTRUCTIONS TO VISIBILITY.

WIZ001-002-006>008-014>016-023>028-141400-
NORTHWEST WISCONSIN

CITY           SKY/WX    TMP DP  RH WIND       PRES   REMARKS
SUPERIOR ARPT  CLOUDY    12  10  91 SW7       29.99S WCI   2
ASHLAND        CLOUDY    12   8  84 S5        29.99R WCI   4
HAYWARD        CLOUDY    17  11  77 NW5       29.97R WCI  10
SIREN          FLURRIES  17  14  89 CALM      30.00R
CUMBERLAND     CLOUDY    18  14  86 NW5       29.97R WCI  11
RICE LAKE      FLURRIES  16  14  93 CALM      30.00R
CHETEK         CLOUDY    13  11  92 MISG      29.99R
LADYSMITH      CLOUDY    12  10  91 CALM      29.98R
EAU CLAIRE     NOT AVBL
MENOMONIE      FLURRIES  14  12  92 CALM      30.02R
NEW RICHMOND   CLOUDY    17  14  90 CALM      30.00R
OSCEOLA        CLOUDY    17  17 100 W3        30.04R
$$

WIZ003>005-009-010-017-018-141400-
NORTH CENTRAL WISCONSIN

CITY           SKY/WX    TMP DP  RH WIND       PRES   REMARKS
MANITOWISH WTR CLOUDY    10   9  93 W5        29.91R WCI   2
ARBOR VITAE    CLOUDY    11   8  88 CALM      29.91R
WOODRUFF       CLOUDY    11   8  88 CALM      29.91R
RHINELANDER    CLOUDY     7   4  87 W7        29.92R WCI  -5
EAGLE RIVER    FLURRIES  10   6  83 W5        29.89R WCI   2
LAND O LAKES   FLURRIES  12   9  87 CALM      29.90S
PHILLIPS       CLOUDY     1  -2  90 CALM      29.93R
TOMAHAWK       CLOUDY     2  -1  88 CALM      29.94R
MEDFORD        MOCLDY     5   2  87 CALM      29.94R
MERRILL        CLOUDY     4   2  90 CALM      29.95S
$$

WIZ029-030-035-036-043>047-141400-
CENTRAL WISCONSIN

CITY           SKY/WX    TMP DP  RH WIND       PRES   REMARKS
WAUSAU         PTCLDY     4   1  88 CALM      29.95R
MOSINEE        PTCLDY     7   5  92 NW5       29.98R WCI  -2
MARSHFIELD     CLOUDY     4   0  83 CALM      29.96R
STEVENS POINT  PTCLDY    -4  -7  88 CALM      29.99R
WAUPACA        CLOUDY     6   1  81 CALM      30.00R
WAUTOMA        CLOUDY    -4  -8  83 CALM      30.02R
WISC RAPIDS    PTCLDY     1  -3  83 CALM      30.02R
CAMP DOUGLAS   PTCLDY     7   3  85 NW3       30.02R
$$

WIZ011>013-019>022-031-037>040-048>050-141400-
NORTHEAST WISCONSIN

CITY           SKY/WX    TMP DP  RH WIND       PRES   REMARKS
ANTIGO         CLOUDY     5   2  88 W6        29.92S WCI  -5
SHAWANO        CLOUDY     8   4  84 CALM      29.98R
OCONTO         CLOUDY    -8 -12  83 CALM      29.99R
STURGEON BAY   PTCLDY    15   8  73 NW10      29.98R WCI   2
GREEN BAY      CLOUDY     4   0  83 W8        30.00R WCI  -9
MANITOWOC      PTCLDY     4   1  88 CALM      30.01R
APPLETON       PTCLDY     3   0  85 W7        29.97R WCI  -9
CLINTONVILLE   CLOUDY     1  -4  78 CALM      29.99R
OSHKOSH        CLOUDY     5   3  91 W5        30.01R WCI  -4
$$

WIZ032>034-041-042-053>061-141400-
SOUTHWEST WISCONSIN

CITY           SKY/WX    TMP DP  RH WIND       PRES   REMARKS
LA CROSSE      CLOUDY     9   5  84 CALM      30.06S
SPARTA         PTCLDY    -2  -4  88 CALM      30.05R
VIROQUA        CLOUDY    10  10  97 CALM      30.01R
BOSCOBEL       CLOUDY     7   2  80 CALM      30.08R
PRAIRIE DU CHI CLOUDY    13   9  85 CALM      30.07R
PLATTEVILLE    CLEAR     11   8  91 N3        30.03R
$$

WIZ056-057-062-063-064-067-068-141400-
SOUTH CENTRAL WISCONSIN

CITY           SKY/WX    TMP DP  RH WIND       PRES   REMARKS
REEDSBURG      CLOUDY    10   8  94 CALM      30.04R
BARABOO/DELLS  CLOUDY     9   6  90 W3        30.03R
LONE ROCK      NOT AVBL
MINERAL POINT  CLOUDY    14  12  92 CALM      30.01R
MADISON        CLOUDY    12   9  87 NW6       30.03R WCI   3
MIDDLETON      CLOUDY    14  11  87 CALM      30.03R
WATERTOWN      PTCLDY     6   5  98 CALM      30.02R
MONROE         CLOUDY    14  10  85 NW5       30.00R WCI   6
JANESVILLE     MOCLDY    12   9  85 NW6       30.03R WCI   3
$$

WIZ051-052-058>065-066-070>072-141400-
SOUTHEAST WISCONSIN

CITY           SKY/WX    TMP DP  RH WIND       PRES   REMARKS
MILWAUKEE      CLOUDY    15   9  76 NW7       30.02R WCI   5
WAUKESHA       CLEAR      9   5  85 NW6       30.02R WCI  -1
MILWAUKEE/TIMM PTCLDY    10   5  79 W6        30.02R WCI   1
RACINE         CLOUDY    12   8  84 NW10      30.03R WCI  -1
BURLINGTON     CLOUDY     9   8  97 W3        30.02R
KENOSHA        PTCLDY    13   6  74 NW9       30.01R WCI   1
FOND DU LAC    CLOUDY     3  -2  79 CALM      30.01R
SHEBOYGAN      CLOUDY     3   2  95 W3        30.00R
WEST BEND      CLOUDY     5   5 100 CALM      29.99R
JUNEAU         PTCLDY     6   4  91 CALM      30.02R
$$

LSZ147-162-141400-
LAKE SUPERIOR

STATION/POSITION TIME  TEMP    WIND        PRES    WAVE
                       AIR SEA DIR/SP/G            HT/PER
                 (UTC) (F)     (DEG/KT/KT) (MB)    (FT/S)
DEVILS ISLAND    1200   18     280/  8/ 10 1016.1R
SAXON HARBOR     1230   14                 1015.6R
$$

LMZ867-665-643>646-141400-
LAKE MICHIGAN

STATION/POSITION TIME  TEMP    WIND        PRES    WAVE
                       AIR SEA DIR/SP/G            HT/PER
                 (UTC) (F)     (DEG/KT/KT) (MB)    (FT/S)
NORTHPORT PIER   1240   19     310/ 14/ 17 1014.2R
KEWAUNEE LAKESHO 1230    6     290/  2/  3 1014.5R
SHEBOYGAN LAKESH 1200   13     310/  9/ 11 1016.7R
PORT WASHINGTON  1240   11     300/  6/ 10 1017.6R
MILWAUKEE LAKESH 1230   15     320/  9/ 11   N/A
KENOSHA   LAKESH 1200   15     320/ 14/ 17 1015.2
$$

TC  - TEMPERATURE IN CELSIUS
VSB - VISIBILITY IN STATUTE MILES
WCI - WIND CHILL INDEX
HX  - HEAT INDEX





USA.gov is the U.S. government's official web portal to all federal, state and local government web resources and services.